| time (UTC) | temp F | wind direction | speed knots | gust knots | rain 1hr in | rain 24hr in | rain mn in | humidity % | barometer mb |
| 20260504194843 | 65 | 166 | 4.3 | 10.4 | 0.00 | 0.00 | 0.00 | 55 | 1007.1 |
| 20260504194643 | 65 | 153 | 3.5 | 8.7 | 0.00 | 0.00 | 0.00 | 53 | 1007.1 |
| 20260504194443 | 66 | 173 | 3.5 | 7.8 | 0.00 | 0.00 | 0.00 | 53 | 1007.1 |
| 20260504194243 | 65 | 186 | 3.5 | 7.8 | 0.00 | 0.00 | 0.00 | 53 | 1007.2 |
| 20260504194044 | 65 | 183 | 4.3 | 11.3 | 0.00 | 0.00 | 0.00 | 54 | 1007.2 |
| 20260504193904 | 65 | 174 | 4.3 | 11.3 | 0.00 | 0.00 | 0.00 | 53 | 1007.2 |
| 20260504193644 | 65 | 249 | 5.2 | 11.3 | 0.00 | 0.00 | 0.00 | 53 | 1007.2 |
| 20260504193443 | 65 | 156 | 5.2 | 11.3 | 0.00 | 0.00 | 0.00 | 53 | 1007.1 |
| 20260504193243 | 65 | 177 | 6.1 | 11.3 | 0.00 | 0.00 | 0.00 | 52 | 1007.2 |
| 20260504193043 | 65 | 153 | 5.2 | 10.4 | 0.00 | 0.00 | 0.00 | 52 | 1007.2 |
| 20260504192843 | 65 | 165 | 5.2 | 10.4 | 0.00 | 0.00 | 0.00 | 53 | 1007.3 |
| 20260504192643 | 65 | 171 | 5.2 | 10.4 | 0.00 | 0.00 | 0.00 | 52 | 1007.3 |
| 20260504192442 | 65 | 167 | 5.2 | 10.4 | 0.00 | 0.00 | 0.00 | 52 | 1007.2 |
| 20260504192242 | 65 | 173 | 5.2 | 10.4 | 0.00 | 0.00 | 0.00 | 51 | 1007.3 |
| 20260504192042 | 65 | 175 | 5.2 | 12.2 | 0.00 | 0.00 | 0.00 | 52 | 1007.3 |
| 20260504191842 | 65 | 176 | 5.2 | 12.2 | 0.00 | 0.00 | 0.00 | 51 | 1007.3 |
| 20260504191641 | 65 | 179 | 6.1 | 12.2 | 0.00 | 0.00 | 0.00 | 51 | 1007.3 |
| 20260504191442 | 66 | 171 | 5.2 | 12.2 | 0.00 | 0.00 | 0.00 | 52 | 1007.4 |
| 20260504191240 | 66 | 176 | 5.2 | 12.2 | 0.00 | 0.00 | 0.00 | 50 | 1007.4 |
| 20260504191041 | 66 | 163 | 4.3 | 9.6 | 0.00 | 0.00 | 0.00 | 50 | 1007.3 |
| 20260504190840 | 67 | 171 | 4.3 | 11.3 | 0.00 | 0.00 | 0.00 | 48 | 1007.3 |
| 20260504190640 | 67 | 163 | 3.5 | 11.3 | 0.00 | 0.00 | 0.00 | 48 | 1007.3 |
| 20260504190441 | 67 | 134 | 3.5 | 11.3 | 0.00 | 0.00 | 0.00 | 48 | 1007.3 |
| 20260504190240 | 67 | 160 | 3.5 | 11.3 | 0.00 | 0.00 | 0.00 | 48 | 1007.3 |
| 20260504190041 | 67 | 147 | 3.5 | 11.3 | 0.00 | 0.00 | 0.00 | 47 | 1007.2 |
| 20260504185841 | 67 | 192 | 3.5 | 9.6 | 0.00 | 0.00 | 0.00 | 48 | 1007.4 |
| 20260504185640 | 66 | 186 | 3.5 | 9.6 | 0.00 | 0.00 | 0.00 | 48 | 1007.4 |
| 20260504185441 | 66 | 183 | 3.5 | 9.6 | 0.00 | 0.00 | 0.00 | 48 | 1007.4 |
| 20260504185241 | 67 | 174 | 4.3 | 9.6 | 0.00 | 0.00 | 0.00 | 49 | 1007.5 |
| 20260504185042 | 67 | 152 | 4.3 | 9.6 | 0.00 | 0.00 | 0.00 | 49 | 1007.5 |
| 20260504184842 | 67 | 180 | 3.5 | 8.7 | 0.00 | 0.00 | 0.00 | 50 | 1007.5 |
| 20260504184641 | 67 | 225 | 3.5 | 8.7 | 0.00 | 0.00 | 0.00 | 49 | 1007.6 |
| 20260504184441 | 68 | 186 | 3.5 | 8.7 | 0.00 | 0.00 | 0.00 | 48 | 1007.6 |
| 20260504184240 | 68 | 194 | 3.5 | 7.0 | 0.00 | 0.00 | 0.00 | 47 | 1007.6 |
| 20260504184041 | 68 | 177 | 3.5 | 7.8 | 0.00 | 0.00 | 0.00 | 47 | 1007.7 |
| 20260504183841 | 67 | 175 | 3.5 | 7.8 | 0.00 | 0.00 | 0.00 | 48 | 1007.7 |
| 20260504183641 | 67 | 187 | 4.3 | 7.8 | 0.00 | 0.00 | 0.00 | 47 | 1007.6 |
| 20260504183441 | 67 | 184 | 4.3 | 7.8 | 0.00 | 0.00 | 0.00 | 46 | 1007.7 |
| 20260504183241 | 67 | 190 | 3.5 | 7.8 | 0.00 | 0.00 | 0.00 | 45 | 1007.7 |
| 20260504183041 | 67 | 195 | 3.5 | 7.8 | 0.00 | 0.00 | 0.00 | 45 | 1007.6 |
| 20260504182841 | 68 | 185 | 3.5 | 7.8 | 0.00 | 0.00 | 0.00 | 47 | 1007.7 |
| 20260504182641 | 67 | 249 | 3.5 | 7.8 | 0.00 | 0.00 | 0.00 | 47 | 1007.6 |
| 20260504182441 | 67 | 170 | 3.5 | 9.6 | 0.00 | 0.00 | 0.00 | 46 | 1007.6 |
| 20260504182241 | 67 | 109 | 4.3 | 9.6 | 0.00 | 0.00 | 0.00 | 45 | 1007.6 |
| 20260504182041 | 67 | 178 | 4.3 | 9.6 | 0.00 | 0.00 | 0.00 | 45 | 1007.6 |
| 20260504181842 | 67 | 163 | 4.3 | 10.4 | 0.00 | 0.00 | 0.00 | 46 | 1007.6 |
| 20260504181641 | 67 | 167 | 4.3 | 10.4 | 0.00 | 0.00 | 0.00 | 45 | 1007.7 |
| 20260504181441 | 67 | 288 | 4.3 | 10.4 | 0.00 | 0.00 | 0.00 | 46 | 1007.6 |
| 20260504181241 | 67 | 186 | 4.3 | 10.4 | 0.00 | 0.00 | 0.00 | 46 | 1007.6 |
| 20260504181042 | 67 | 175 | 5.2 | 10.4 | 0.00 | 0.00 | 0.00 | 45 | 1007.6 |
| 20260504180901 | 67 | 178 | 5.2 | 10.4 | 0.00 | 0.00 | 0.00 | 45 | 1007.7 |
| 20260504180642 | 67 | 155 | 4.3 | 9.6 | 0.00 | 0.00 | 0.00 | 44 | 1007.7 |
| 20260504180441 | 67 | 175 | 4.3 | 9.6 | 0.00 | 0.00 | 0.00 | 43 | 1007.7 |
| 20260504180242 | 67 | 177 | 4.3 | 9.6 | 0.00 | 0.00 | 0.00 | 43 | 1007.7 |
| 20260504180039 | 67 | 178 | 4.3 | 9.6 | 0.00 | 0.00 | 0.00 | 44 | 1007.7 |
| 20260504175839 | 67 | 225 | 4.3 | 9.6 | 0.00 | 0.00 | 0.00 | 44 | 1007.6 |
| 20260504175639 | 68 | 193 | 4.3 | 9.6 | 0.00 | 0.00 | 0.00 | 42 | 1007.6 |
| 20260504175439 | 67 | 276 | 3.5 | 9.6 | 0.00 | 0.00 | 0.00 | 42 | 1007.7 |
| 20260504175239 | 67 | 264 | 4.3 | 9.6 | 0.00 | 0.00 | 0.00 | 42 | 1007.7 |
| 20260504175039 | 67 | 192 | 4.3 | 9.6 | 0.00 | 0.00 | 0.00 | 43 | 1007.6 |
| 20260504174839 | 67 | 193 | 4.3 | 9.6 | 0.00 | 0.00 | 0.00 | 44 | 1007.7 |
| 20260504174638 | 67 | 242 | 3.5 | 7.8 | 0.00 | 0.00 | 0.00 | 45 | 1007.7 |
| 20260504174438 | 67 | 223 | 3.5 | 10.4 | 0.00 | 0.00 | 0.00 | 45 | 1007.7 |
| 20260504174239 | 67 | 88 | 3.5 | 10.4 | 0.00 | 0.00 | 0.00 | 44 | 1007.8 |
| 20260504174040 | 67 | 172 | 3.5 | 10.4 | 0.00 | 0.00 | 0.00 | 44 | 1007.9 |
| 20260504173839 | 67 | 211 | 3.5 | 10.4 | 0.00 | 0.00 | 0.00 | 45 | 1007.8 |
| 20260504173639 | 67 | 180 | 3.5 | 10.4 | 0.00 | 0.00 | 0.00 | 46 | 1007.8 |
| 20260504173439 | 67 | 191 | 3.5 | 9.6 | 0.00 | 0.00 | 0.00 | 44 | 1007.9 |
| 20260504173239 | 67 | 172 | 3.5 | 9.6 | 0.00 | 0.00 | 0.00 | 45 | 1007.8 |
| 20260504173039 | 67 | 206 | 3.5 | 9.6 | 0.00 | 0.00 | 0.00 | 43 | 1007.9 |
| 20260504172858 | 67 | 195 | 3.5 | 9.6 | 0.00 | 0.00 | 0.00 | 45 | 1007.9 |
| 20260504172639 | 67 | 275 | 3.5 | 9.6 | 0.00 | 0.00 | 0.00 | 44 | 1007.9 |
| 20260504172439 | 67 | 182 | 3.5 | 10.4 | 0.00 | 0.00 | 0.00 | 43 | 1008.0 |
| 20260504172239 | 67 | 165 | 3.5 | 10.4 | 0.00 | 0.00 | 0.00 | 44 | 1007.9 |
| 20260504172040 | 67 | 192 | 3.5 | 10.4 | 0.00 | 0.00 | 0.00 | 43 | 1008.0 |
| 20260504171839 | 66 | 190 | 3.5 | 10.4 | 0.00 | 0.00 | 0.00 | 45 | 1008.1 |
| 20260504171640 | 66 | 280 | 3.5 | 10.4 | 0.00 | 0.00 | 0.00 | 44 | 1008.1 |
| 20260504171440 | 66 | 227 | 4.3 | 10.4 | 0.00 | 0.00 | 0.00 | 44 | 1008.0 |
| 20260504171239 | 66 | 167 | 4.3 | 8.7 | 0.00 | 0.00 | 0.00 | 44 | 1008.1 |
| 20260504171039 | 66 | 183 | 4.3 | 9.6 | 0.00 | 0.00 | 0.00 | 44 | 1008.1 |
| 20260504170859 | 66 | 169 | 4.3 | 9.6 | 0.00 | 0.00 | 0.00 | 43 | 1008.2 |
| 20260504170639 | 66 | 173 | 4.3 | 9.6 | 0.00 | 0.00 | 0.00 | 43 | 1008.2 |
| 20260504170439 | 66 | 171 | 4.3 | 9.6 | 0.00 | 0.00 | 0.00 | 43 | 1008.3 |
| 20260504170240 | 66 | 189 | 3.5 | 9.6 | 0.00 | 0.00 | 0.00 | 43 | 1008.2 |
| 20260504160433 | 66 | 292 | 3.5 | 11.3 | 0.00 | 0.00 | 0.00 | 39 | 1008.9 |
| 20260504160234 | 66 | 172 | 3.5 | 11.3 | 0.00 | 0.00 | 0.00 | 39 | 1008.9 |
| 20260504151020 | 66 | 50 | 3.5 | 7.8 | 0.00 | 0.00 | 0.00 | 40 | 1009.5 |
| 20260504150853 | 65 | 202 | 3.5 | 7.8 | 0.00 | 0.00 | 0.00 | 40 | 1009.4 |
| 20260504150620 | 65 | 186 | 3.5 | 7.8 | 0.00 | 0.00 | 0.00 | 39 | 1009.5 |
| 20260504150420 | 65 | 200 | 2.6 | 7.8 | 0.00 | 0.00 | 0.00 | 40 | 1009.6 |
| 20260504150220 | 66 | 198 | 3.5 | 7.8 | 0.00 | 0.00 | 0.00 | 39 | 1009.6 |
| 20260504141215 | 63 | 166 | 3.5 | 8.7 | 0.00 | 0.00 | 0.00 | 43 | 1009.6 |
| 20260504141015 | 64 | 205 | 3.5 | 8.7 | 0.00 | 0.00 | 0.00 | 43 | 1009.6 |
| 20260504140815 | 63 | 201 | 3.5 | 7.8 | 0.00 | 0.00 | 0.00 | 44 | 1009.6 |
| 20260504140616 | 63 | 197 | 3.5 | 7.8 | 0.00 | 0.00 | 0.00 | 44 | 1009.6 |
| 20260504140415 | 64 | 197 | 3.5 | 7.8 | 0.00 | 0.00 | 0.00 | 44 | 1009.6 |
| 20260504140215 | 64 | 182 | 3.5 | 7.0 | 0.00 | 0.00 | 0.00 | 43 | 1009.6 |
| 20260504130804 | 60 | 236 | 2.6 | 7.8 | 0.00 | 0.00 | 0.00 | 49 | 1010.0 |
| 20260504130603 | 60 | 164 | 2.6 | 7.8 | 0.00 | 0.00 | 0.00 | 50 | 1010.1 |
| 20260504130404 | 60 | 184 | 2.6 | 7.8 | 0.00 | 0.00 | 0.00 | 50 | 1010.1 |
| 20260504130204 | 60 | 203 | 2.6 | 7.8 | 0.00 | 0.00 | 0.00 | 50 | 1010.0 |
| 20260504120155 | 55 | 184 | 1.7 | 6.1 | 0.00 | 0.00 | 0.00 | 57 | 1010.2 |
| 20260504110550 | 52 | 174 | 1.7 | 4.3 | 0.00 | 0.00 | 0.00 | 59 | 1010.2 |
| 20260504110351 | 51 | 206 | 1.7 | 4.3 | 0.00 | 0.00 | 0.00 | 59 | 1010.1 |
| 20260504110150 | 51 | 166 | 1.7 | 4.3 | 0.00 | 0.00 | 0.00 | 59 | 1010.2 |
| 20260504100543 | 49 | 169 | 1.7 | 3.5 | 0.00 | 0.00 | 0.00 | 61 | 1010.0 |
| 20260504100341 | 48 | 235 | 1.7 | 3.5 | 0.00 | 0.00 | 0.00 | 61 | 1009.9 |
| 20260504100142 | 48 | 188 | 1.7 | 3.5 | 0.00 | 0.00 | 0.00 | 61 | 1010.0 |
| 20260504081926 | 50 | 171 | 1.7 | 4.3 | 0.00 | 0.00 | 0.00 | 52 | 1009.3 |
| 20260504081726 | 50 | 217 | 1.7 | 4.3 | 0.00 | 0.00 | 0.00 | 52 | 1009.3 |
| 20260504081525 | 50 | 213 | 0.9 | 4.3 | 0.00 | 0.00 | 0.00 | 52 | 1009.4 |
| 20260504081325 | 50 | 236 | 0.9 | 4.3 | 0.00 | 0.00 | 0.00 | 53 | 1009.4 |
| 20260504081125 | 50 | 210 | 0.9 | 2.6 | 0.00 | 0.00 | 0.00 | 53 | 1009.4 |
| 20260504080925 | 50 | 0 | 0.9 | 4.3 | 0.00 | 0.00 | 0.00 | 53 | 1009.3 |
| 20260504080723 | 50 | 194 | 0.9 | 4.3 | 0.00 | 0.00 | 0.00 | 53 | 1009.3 |
| 20260504080522 | 50 | 222 | 1.7 | 4.3 | 0.00 | 0.00 | 0.00 | 53 | 1009.3 |
| 20260504080323 | 50 | 247 | 1.7 | 6.1 | 0.00 | 0.00 | 0.00 | 53 | 1009.2 |
| 20260504080123 | 50 | 197 | 1.7 | 6.1 | 0.00 | 0.00 | 0.00 | 53 | 1009.2 |
| 20260504070317 | 50 | 231 | 0.9 | 3.5 | 0.00 | 0.00 | 0.00 | 54 | 1008.8 |
| 20260504070118 | 50 | 250 | 0.9 | 3.5 | 0.00 | 0.00 | 0.00 | 53 | 1008.8 |
| 20260504060112 | 49 | 0 | 0.9 | 1.7 | 0.00 | 0.00 | 0.00 | 62 | 1008.9 |
| 20260504050456 | 49 | 244 | 0.9 | 1.7 | 0.00 | 0.00 | 0.00 | 60 | 1008.6 |
| 20260504050314 | 49 | 194 | 0.9 | 1.7 | 0.00 | 0.00 | 0.00 | 60 | 1008.6 |
| 20260504045853 | 49 | 191 | 0.9 | 1.7 | 0.00 | 0.00 | 0.00 | 60 | 1008.6 |
| 20260504045653 | 49 | 195 | 0.9 | 1.7 | 0.00 | 0.00 | 0.00 | 60 | 1008.6 |
| 20260504045454 | 50 | 189 | 0.9 | 1.7 | 0.00 | 0.00 | 0.00 | 60 | 1008.6 |
| 20260504045254 | 50 | 228 | 0.9 | 2.6 | 0.00 | 0.00 | 0.00 | 60 | 1008.6 |
| 20260504045054 | 50 | 197 | 0.9 | 2.6 | 0.00 | 0.00 | 0.00 | 60 | 1008.6 |
| 20260504044853 | 49 | 203 | 0.9 | 2.6 | 0.00 | 0.00 | 0.00 | 60 | 1008.6 |
| 20260504044653 | 49 | 188 | 0.9 | 2.6 | 0.00 | 0.00 | 0.00 | 60 | 1008.6 |
| 20260504044454 | 49 | 207 | 0.9 | 2.6 | 0.00 | 0.00 | 0.00 | 60 | 1008.6 |
| 20260504044254 | 49 | 179 | 0.9 | 2.6 | 0.00 | 0.00 | 0.00 | 60 | 1008.5 |
| 20260504044053 | 49 | 206 | 0.9 | 2.6 | 0.00 | 0.00 | 0.00 | 61 | 1008.5 |
| 20260504043855 | 49 | 195 | 0.9 | 2.6 | 0.00 | 0.00 | 0.00 | 61 | 1008.5 |
| 20260504043655 | 49 | 203 | 0.9 | 2.6 | 0.00 | 0.00 | 0.00 | 61 | 1008.5 |
| 20260504043454 | 49 | 193 | 0.9 | 1.7 | 0.00 | 0.00 | 0.00 | 61 | 1008.5 |
| 20260504043254 | 49 | 185 | 0.9 | 1.7 | 0.00 | 0.00 | 0.00 | 61 | 1008.5 |
| 20260504043054 | 49 | 185 | 0.9 | 1.7 | 0.00 | 0.00 | 0.00 | 62 | 1008.5 |
| 20260504042854 | 48 | 207 | 0.9 | 1.7 | 0.00 | 0.00 | 0.00 | 62 | 1008.5 |
| 20260504042654 | 48 | 206 | 0.0 | 1.7 | 0.00 | 0.00 | 0.00 | 62 | 1008.5 |
| 20260504042454 | 48 | 170 | 0.9 | 1.7 | 0.00 | 0.00 | 0.00 | 61 | 1008.4 |
| 20260504042254 | 48 | 205 | 0.9 | 1.7 | 0.00 | 0.00 | 0.00 | 62 | 1008.5 |
| 20260504042055 | 48 | 206 | 0.9 | 1.7 | 0.00 | 0.00 | 0.00 | 61 | 1008.5 |
| 20260504041854 | 48 | 234 | 0.9 | 1.7 | 0.00 | 0.00 | 0.00 | 61 | 1008.5 |
| 20260504041654 | 48 | 183 | 0.9 | 1.7 | 0.00 | 0.00 | 0.00 | 61 | 1008.4 |
| 20260504041454 | 48 | 249 | 0.9 | 1.7 | 0.00 | 0.00 | 0.00 | 60 | 1008.4 |
| 20260504041254 | 48 | 0 | 0.0 | 1.7 | 0.00 | 0.00 | 0.00 | 60 | 1008.4 |
| 20260504041054 | 48 | 199 | 0.0 | 0.9 | 0.00 | 0.00 | 0.00 | 59 | 1008.4 |
| 20260504040855 | 48 | 227 | 0.0 | 0.9 | 0.00 | 0.00 | 0.00 | 60 | 1008.4 |
| 20260504040653 | 48 | 203 | 0.0 | 0.9 | 0.00 | 0.00 | 0.00 | 60 | 1008.4 |
| 20260504040453 | 48 | 0 | 0.0 | 1.7 | 0.00 | 0.00 | 0.00 | 60 | 1008.4 |
| 20260504040254 | 48 | 0 | 0.0 | 1.7 | 0.00 | 0.00 | 0.00 | 59 | 1008.4 |
| 20260504040053 | 48 | 0 | 0.0 | 1.7 | 0.00 | 0.00 | 0.00 | 59 | 1008.4 |
| 20260504035853 | 48 | 198 | 0.0 | 1.7 | 0.00 | 0.00 | 0.00 | 59 | 1008.4 |
| 20260504035653 | 48 | 0 | 0.0 | 1.7 | 0.00 | 0.00 | 0.00 | 59 | 1008.4 |
| 20260504035451 | 47 | 200 | 0.0 | 1.7 | 0.00 | 0.00 | 0.00 | 59 | 1008.4 |
| 20260504035250 | 47 | 0 | 0.9 | 1.7 | 0.00 | 0.00 | 0.00 | 59 | 1008.4 |
| 20260504035048 | 47 | 223 | 0.9 | 1.7 | 0.00 | 0.00 | 0.00 | 59 | 1008.3 |
| 20260504034848 | 47 | 248 | 0.9 | 1.7 | 0.00 | 0.00 | 0.00 | 60 | 1008.3 |
| 20260504034648 | 47 | 211 | 0.9 | 1.7 | 0.00 | 0.00 | 0.00 | 60 | 1008.3 |
| 20260504034448 | 47 | 215 | 0.9 | 1.7 | 0.00 | 0.00 | 0.00 | 60 | 1008.4 |
| 20260504034248 | 46 | 234 | 0.9 | 1.7 | 0.00 | 0.00 | 0.00 | 60 | 1008.3 |
| 20260504034048 | 46 | 224 | 0.0 | 1.7 | 0.00 | 0.00 | 0.00 | 62 | 1008.3 |
| 20260504033848 | 46 | 0 | 0.0 | 1.7 | 0.00 | 0.00 | 0.00 | 63 | 1008.3 |
| 20260504033649 | 46 | 234 | 0.0 | 0.9 | 0.00 | 0.00 | 0.00 | 63 | 1008.3 |
| 20260504033448 | 46 | 0 | 0.0 | 0.9 | 0.00 | 0.00 | 0.00 | 64 | 1008.2 |
| 20260504033248 | 46 | 0 | 0.0 | 0.9 | 0.00 | 0.00 | 0.00 | 64 | 1008.2 |
| 20260504033049 | 46 | 345 | 0.0 | 0.9 | 0.00 | 0.00 | 0.00 | 64 | 1008.2 |
| 20260504032848 | 46 | 292 | 0.0 | 0.9 | 0.00 | 0.00 | 0.00 | 64 | 1008.2 |
| 20260504032648 | 46 | 0 | 0.0 | 0.9 | 0.00 | 0.00 | 0.00 | 63 | 1008.2 |
| 20260504032448 | 46 | 0 | 0.0 | 0.9 | 0.00 | 0.00 | 0.00 | 63 | 1008.2 |
| 20260504032308 | 46 | 298 | 0.0 | 0.9 | 0.00 | 0.00 | 0.00 | 63 | 1008.2 |
| 20260504032049 | 46 | 0 | 0.0 | 0.9 | 0.00 | 0.00 | 0.00 | 63 | 1008.3 |
| 20260504031848 | 46 | 0 | 0.0 | 0.9 | 0.00 | 0.00 | 0.00 | 62 | 1008.3 |
| 20260504031648 | 46 | 0 | 0.0 | 0.9 | 0.00 | 0.00 | 0.00 | 61 | 1008.3 |
| 20260504031448 | 47 | 0 | 0.0 | 0.9 | 0.00 | 0.00 | 0.00 | 61 | 1008.2 |
| 20260504031248 | 47 | 0 | 0.0 | 0.9 | 0.00 | 0.00 | 0.00 | 61 | 1008.3 |
| 20260504031048 | 47 | 0 | 0.0 | 0.9 | 0.00 | 0.00 | 0.00 | 60 | 1008.3 |
| 20260504030848 | 47 | 0 | 0.0 | 0.9 | 0.00 | 0.00 | 0.00 | 60 | 1008.2 |
| 20260504030648 | 47 | 0 | 0.0 | 0.0 | 0.00 | 0.00 | 0.00 | 57 | 1008.3 |
| 20260504030449 | 47 | 0 | 0.0 | 0.9 | 0.00 | 0.00 | 0.00 | 58 | 1008.3 |
| 20260504030249 | 47 | 0 | 0.0 | 1.7 | 0.00 | 0.00 | 0.00 | 59 | 1008.3 |
| 20260504030048 | 48 | 0 | 0.0 | 1.7 | 0.00 | 0.00 | 0.00 | 60 | 1008.3 |
| 20260504025848 | 48 | 0 | 0.0 | 1.7 | 0.00 | 0.00 | 0.00 | 60 | 1008.3 |
| 20260504025649 | 48 | 0 | 0.0 | 1.7 | 0.00 | 0.00 | 0.00 | 59 | 1008.3 |
| 20260504025448 | 48 | 0 | 0.0 | 1.7 | 0.00 | 0.00 | 0.00 | 58 | 1008.3 |
| 20260504025307 | 48 | 0 | 0.0 | 0.9 | 0.00 | 0.00 | 0.00 | 57 | 1008.2 |
| 20260504025048 | 48 | 0 | 0.0 | 0.9 | 0.00 | 0.00 | 0.00 | 57 | 1008.2 |
| 20260504024848 | 48 | 0 | 0.0 | 0.9 | 0.00 | 0.00 | 0.00 | 56 | 1008.2 |
| 20260504024648 | 49 | 0 | 0.0 | 0.9 | 0.00 | 0.00 | 0.00 | 55 | 1008.2 |
| 20260504024448 | 49 | 0 | 0.0 | 0.9 | 0.00 | 0.00 | 0.00 | 55 | 1008.2 |
| 20260504024248 | 49 | 0 | 0.0 | 0.9 | 0.00 | 0.00 | 0.00 | 54 | 1008.2 |
| 20260504024046 | 49 | 31 | 0.0 | 0.9 | 0.00 | 0.00 | 0.00 | 53 | 1008.2 |
| 20260504023845 | 49 | 0 | 0.0 | 0.0 | 0.00 | 0.00 | 0.00 | 52 | 1008.3 |
| 20260504023643 | 50 | 0 | 0.0 | 0.9 | 0.00 | 0.00 | 0.00 | 52 | 1008.3 |
| 20260504023439 | 50 | 0 | 0.0 | 0.9 | 0.00 | 0.00 | 0.00 | 53 | 1008.3 |
| 20260504023239 | 50 | 0 | 0.0 | 1.7 | 0.00 | 0.00 | 0.00 | 54 | 1008.4 |
| 20260504023040 | 50 | 0 | 0.0 | 1.7 | 0.00 | 0.00 | 0.00 | 51 | 1008.4 |
| 20260504022840 | 50 | 0 | 0.0 | 1.7 | 0.00 | 0.00 | 0.00 | 50 | 1008.4 |
| 20260504022640 | 51 | 0 | 0.0 | 1.7 | 0.00 | 0.00 | 0.00 | 48 | 1008.3 |
| 20260504022439 | 51 | 0 | 0.0 | 1.7 | 0.00 | 0.00 | 0.00 | 49 | 1008.3 |
| 20260504022304 | 51 | 221 | 0.0 | 1.7 | 0.00 | 0.00 | 0.00 | 51 | 1008.3 |
| 20260504022040 | 51 | 0 | 0.0 | 0.9 | 0.00 | 0.00 | 0.00 | 48 | 1008.3 |
| 20260504021840 | 51 | 0 | 0.0 | 2.6 | 0.00 | 0.00 | 0.00 | 47 | 1008.3 |
| 20260504021640 | 51 | 0 | 0.0 | 2.6 | 0.00 | 0.00 | 0.00 | 50 | 1008.3 |
| 20260504021440 | 52 | 310 | 0.0 | 2.6 | 0.00 | 0.00 | 0.00 | 47 | 1008.3 |
| 20260504021240 | 52 | 0 | 0.9 | 2.6 | 0.00 | 0.00 | 0.00 | 47 | 1008.3 |
| 20260504021040 | 52 | 0 | 0.9 | 2.6 | 0.00 | 0.00 | 0.00 | 45 | 1008.3 |
| 20260504020841 | 52 | 247 | 0.9 | 2.6 | 0.00 | 0.00 | 0.00 | 44 | 1008.3 |
| 20260504020640 | 52 | 0 | 0.9 | 2.6 | 0.00 | 0.00 | 0.00 | 44 | 1008.3 |
| 20260504020441 | 52 | 212 | 1.7 | 2.6 | 0.00 | 0.00 | 0.00 | 44 | 1008.3 |
| 20260504020240 | 52 | 233 | 1.7 | 2.6 | 0.00 | 0.00 | 0.00 | 44 | 1008.3 |
| 20260504020041 | 52 | 220 | 1.7 | 2.6 | 0.00 | 0.00 | 0.00 | 44 | 1008.2 |
| 20260504015837 | 52 | 243 | 0.9 | 2.6 | 0.00 | 0.00 | 0.00 | 44 | 1008.2 |
| 20260504015634 | 52 | 241 | 0.9 | 2.6 | 0.00 | 0.00 | 0.00 | 45 | 1008.2 |
| 20260504015432 | 52 | 251 | 0.9 | 2.6 | 0.00 | 0.00 | 0.00 | 46 | 1008.2 |
| 20260504015229 | 52 | 199 | 0.9 | 1.7 | 0.00 | 0.00 | 0.00 | 46 | 1008.2 |
| 20260504015028 | 52 | 194 | 0.9 | 1.7 | 0.00 | 0.00 | 0.00 | 46 | 1008.2 |
| 20260504014829 | 52 | 236 | 0.9 | 2.6 | 0.00 | 0.00 | 0.00 | 46 | 1008.2 |
| 20260504014628 | 52 | 286 | 0.9 | 2.6 | 0.00 | 0.00 | 0.00 | 45 | 1008.2 |
| 20260504014426 | 52 | 233 | 0.9 | 3.5 | 0.00 | 0.00 | 0.00 | 45 | 1008.2 |
| 20260504014300 | 52 | 317 | 1.7 | 3.5 | 0.00 | 0.00 | 0.00 | 45 | 1008.2 |
| 20260504014026 | 52 | 217 | 1.7 | 3.5 | 0.00 | 0.00 | 0.00 | 45 | 1008.2 |
| 20260504013826 | 52 | 235 | 1.7 | 3.5 | 0.00 | 0.00 | 0.00 | 43 | 1008.1 |
| 20260504013626 | 52 | 233 | 1.7 | 3.5 | 0.00 | 0.00 | 0.00 | 44 | 1008.1 |
| 20260504013425 | 52 | 261 | 1.7 | 3.5 | 0.00 | 0.00 | 0.00 | 45 | 1008.1 |
| 20260504013301 | 52 | 219 | 1.7 | 3.5 | 0.00 | 0.00 | 0.00 | 44 | 1008.1 |
| 20260504013027 | 52 | 262 | 0.9 | 3.5 | 0.00 | 0.00 | 0.00 | 45 | 1008.0 |
| 20260504012826 | 52 | 218 | 0.9 | 1.7 | 0.00 | 0.00 | 0.00 | 45 | 1008.0 |
| 20260504012626 | 52 | 211 | 0.9 | 1.7 | 0.00 | 0.00 | 0.00 | 48 | 1008.0 |
| 20260504012426 | 52 | 260 | 0.9 | 1.7 | 0.00 | 0.00 | 0.00 | 45 | 1007.9 |
| 20260504012227 | 52 | 242 | 0.9 | 1.7 | 0.00 | 0.00 | 0.00 | 46 | 1007.9 |
| 20260504012028 | 52 | 205 | 0.9 | 1.7 | 0.00 | 0.00 | 0.00 | 44 | 1007.9 |
| 20260504011828 | 52 | 213 | 0.0 | 1.7 | 0.00 | 0.00 | 0.00 | 45 | 1007.9 |
| 20260504011627 | 52 | 196 | 0.0 | 1.7 | 0.00 | 0.00 | 0.00 | 43 | 1007.9 |
| 20260504011428 | 52 | 0 | 0.0 | 0.9 | 0.00 | 0.00 | 0.00 | 43 | 1007.8 |
| 20260504011227 | 52 | 0 | 0.0 | 0.9 | 0.00 | 0.00 | 0.00 | 42 | 1007.8 |
| 20260504011027 | 53 | 0 | 0.0 | 1.7 | 0.00 | 0.00 | 0.00 | 42 | 1007.8 |
| 20260504010827 | 53 | 0 | 0.0 | 1.7 | 0.00 | 0.00 | 0.00 | 42 | 1007.8 |
| 20260504010628 | 53 | 0 | 0.9 | 1.7 | 0.00 | 0.00 | 0.00 | 42 | 1007.8 |
| 20260504010427 | 53 | 0 | 0.9 | 1.7 | 0.00 | 0.00 | 0.00 | 42 | 1007.8 |
| 20260504010227 | 53 | 272 | 0.9 | 1.7 | 0.00 | 0.00 | 0.00 | 42 | 1007.7 |
| 20260504010028 | 53 | 212 | 0.9 | 1.7 | 0.00 | 0.00 | 0.00 | 42 | 1007.7 |
| 20260504005828 | 53 | 0 | 0.9 | 1.7 | 0.00 | 0.00 | 0.00 | 42 | 1007.7 |
| 20260504005628 | 53 | 208 | 0.9 | 1.7 | 0.00 | 0.00 | 0.00 | 42 | 1007.6 |
| 20260504005428 | 53 | 199 | 0.9 | 1.7 | 0.00 | 0.00 | 0.00 | 40 | 1007.6 |
| 20260504005228 | 53 | 202 | 0.9 | 1.7 | 0.00 | 0.00 | 0.00 | 40 | 1007.6 |
| 20260504005028 | 53 | 231 | 0.0 | 1.7 | 0.00 | 0.00 | 0.00 | 41 | 1007.6 |
| 20260504004828 | 53 | 242 | 0.0 | 1.7 | 0.00 | 0.00 | 0.00 | 41 | 1007.6 |
| 20260504004628 | 53 | 220 | 0.0 | 0.9 | 0.00 | 0.00 | 0.00 | 42 | 1007.6 |
| 20260504004428 | 54 | 277 | 0.0 | 0.9 | 0.00 | 0.00 | 0.00 | 41 | 1007.5 |
| 20260504004228 | 54 | 0 | 0.0 | 1.7 | 0.00 | 0.00 | 0.00 | 41 | 1007.5 |
| 20260504004027 | 54 | 0 | 0.0 | 1.7 | 0.00 | 0.00 | 0.00 | 40 | 1007.5 |
| 20260504003828 | 54 | 0 | 0.9 | 1.7 | 0.00 | 0.00 | 0.00 | 41 | 1007.4 |
| 20260504003628 | 54 | 0 | 0.9 | 1.7 | 0.00 | 0.00 | 0.00 | 41 | 1007.4 |
| 20260504003427 | 54 | 231 | 0.9 | 1.7 | 0.00 | 0.00 | 0.00 | 39 | 1007.4 |
| 20260504003256 | 54 | 244 | 0.9 | 1.7 | 0.00 | 0.00 | 0.00 | 39 | 1007.4 |
| 20260504003026 | 55 | 211 | 0.0 | 1.7 | 0.00 | 0.00 | 0.00 | 39 | 1007.3 |
| 20260504002825 | 55 | 224 | 0.0 | 1.7 | 0.00 | 0.00 | 0.00 | 38 | 1007.3 |
| 20260504002622 | 55 | 254 | 0.0 | 1.7 | 0.00 | 0.00 | 0.00 | 38 | 1007.2 |
| 20260504002421 | 55 | 0 | 0.0 | 1.7 | 0.00 | 0.00 | 0.00 | 37 | 1007.2 |
| 20260504002220 | 55 | 0 | 0.0 | 1.7 | 0.00 | 0.00 | 0.00 | 38 | 1007.2 |
| 20260504002020 | 55 | 0 | 0.0 | 1.7 | 0.00 | 0.00 | 0.00 | 37 | 1007.1 |
| 20260504001818 | 55 | 241 | 0.9 | 1.7 | 0.00 | 0.00 | 0.00 | 37 | 1007.1 |
| 20260504001618 | 55 | 236 | 0.0 | 1.7 | 0.00 | 0.00 | 0.00 | 37 | 1007.1 |
| 20260504001418 | 55 | 199 | 0.0 | 3.5 | 0.00 | 0.00 | 0.00 | 37 | 1007.1 |
| 20260504001218 | 55 | 0 | 0.9 | 3.5 | 0.00 | 0.00 | 0.00 | 37 | 1007.1 |
| 20260504001018 | 56 | 231 | 0.9 | 3.5 | 0.00 | 0.00 | 0.00 | 37 | 1007.1 |
| 20260504000815 | 56 | 0 | 0.9 | 3.5 | 0.00 | 0.00 | 0.00 | 37 | 1007.0 |
| 20260504000611 | 56 | 256 | 1.7 | 3.5 | 0.00 | 0.00 | 0.00 | 36 | 1007.0 |
| 20260504000409 | 56 | 236 | 1.7 | 3.5 | 0.00 | 0.00 | 0.00 | 36 | 1007.0 |
| 20260504000209 | 56 | 257 | 1.7 | 3.5 | 0.00 | 0.00 | 0.00 | 35 | 1006.9 |
| 20260504000009 | 56 | 241 | 1.7 | 3.5 | 0.00 | 0.00 | 0.00 | 35 | 1006.9 |
| 20260503235809 | 56 | 249 | 0.9 | 3.5 | 0.00 | 0.00 | 0.00 | 35 | 1006.9 |
| 20260503235610 | 56 | 243 | 0.9 | 2.6 | 0.00 | 0.00 | 0.00 | 35 | 1006.9 |
| 20260503235409 | 56 | 264 | 0.9 | 3.5 | 0.00 | 0.00 | 0.00 | 35 | 1006.9 |
| 20260503235209 | 56 | 283 | 0.9 | 3.5 | 0.00 | 0.00 | 0.00 | 35 | 1006.9 |
| 20260503235009 | 56 | 282 | 0.9 | 4.3 | 0.00 | 0.00 | 0.00 | 35 | 1006.8 |
| 20260503234809 | 57 | 286 | 0.9 | 4.3 | 0.00 | 0.00 | 0.00 | 34 | 1006.8 |
| 20260503234609 | 57 | 252 | 0.9 | 4.3 | 0.00 | 0.00 | 0.00 | 34 | 1006.8 |
| 20260503234409 | 57 | 248 | 1.7 | 4.3 | 0.00 | 0.00 | 0.00 | 34 | 1006.8 |
| 20260503234209 | 57 | 0 | 1.7 | 4.3 | 0.00 | 0.00 | 0.00 | 33 | 1006.8 |
| 20260503234009 | 57 | 215 | 1.7 | 4.3 | 0.00 | 0.00 | 0.00 | 34 | 1006.8 |
| 20260503233810 | 57 | 243 | 1.7 | 4.3 | 0.00 | 0.00 | 0.00 | 33 | 1006.7 |
| 20260503233609 | 57 | 262 | 1.7 | 4.3 | 0.00 | 0.00 | 0.00 | 33 | 1006.7 |
| 20260503233407 | 57 | 305 | 0.9 | 3.5 | 0.00 | 0.00 | 0.00 | 33 | 1006.7 |
| 20260503233206 | 57 | 293 | 1.7 | 7.8 | 0.00 | 0.00 | 0.00 | 33 | 1006.6 |
| 20260503233006 | 58 | 177 | 1.7 | 7.8 | 0.00 | 0.00 | 0.00 | 33 | 1006.6 |
| 20260503232806 | 58 | 0 | 1.7 | 7.8 | 0.00 | 0.00 | 0.00 | 33 | 1006.6 |
| 20260503232606 | 58 | 0 | 1.7 | 7.8 | 0.00 | 0.00 | 0.00 | 32 | 1006.6 |
| 20260503232404 | 58 | 244 | 1.7 | 7.8 | 0.00 | 0.00 | 0.00 | 31 | 1006.6 |
| 20260503232203 | 58 | 232 | 1.7 | 7.0 | 0.00 | 0.00 | 0.00 | 32 | 1006.5 |
| 20260503232004 | 58 | 196 | 1.7 | 6.1 | 0.00 | 0.00 | 0.00 | 32 | 1006.5 |
| 20260503231801 | 58 | 237 | 1.7 | 5.2 | 0.00 | 0.00 | 0.00 | 32 | 1006.5 |
| 20260503231601 | 58 | 239 | 1.7 | 3.5 | 0.00 | 0.00 | 0.00 | 32 | 1006.5 |
| 20260503231401 | 58 | 288 | 1.7 | 3.5 | 0.00 | 0.00 | 0.00 | 32 | 1006.5 |
| 20260503231201 | 58 | 243 | 1.7 | 4.3 | 0.00 | 0.00 | 0.00 | 32 | 1006.4 |
| 20260503230959 | 58 | 194 | 1.7 | 6.1 | 0.00 | 0.00 | 0.00 | 32 | 1006.4 |
| 20260503230759 | 58 | 208 | 1.7 | 6.1 | 0.00 | 0.00 | 0.00 | 32 | 1006.4 |
| 20260503230559 | 58 | 345 | 1.7 | 6.1 | 0.00 | 0.00 | 0.00 | 31 | 1006.4 |
| 20260503230359 | 58 | 65 | 1.7 | 6.1 | 0.00 | 0.00 | 0.00 | 31 | 1006.4 |
| 20260503230159 | 58 | 283 | 1.7 | 6.1 | 0.00 | 0.00 | 0.00 | 31 | 1006.4 |
| 20260503225958 | 59 | 199 | 1.7 | 5.2 | 0.00 | 0.00 | 0.00 | 31 | 1006.4 |
| 20260503225759 | 59 | 254 | 1.7 | 5.2 | 0.00 | 0.00 | 0.00 | 30 | 1006.4 |
| 20260503225600 | 59 | 242 | 1.7 | 5.2 | 0.00 | 0.00 | 0.00 | 30 | 1006.4 |
| 20260503225359 | 59 | 245 | 1.7 | 5.2 | 0.00 | 0.00 | 0.00 | 31 | 1006.4 |
| 20260503225159 | 59 | 284 | 1.7 | 7.0 | 0.00 | 0.00 | 0.00 | 30 | 1006.4 |
| 20260503224959 | 59 | 349 | 1.7 | 7.0 | 0.00 | 0.00 | 0.00 | 30 | 1006.4 |
| 20260503224759 | 59 | 40 | 2.6 | 7.0 | 0.00 | 0.00 | 0.00 | 30 | 1006.4 |
| 20260503224559 | 59 | 299 | 2.6 | 7.8 | 0.00 | 0.00 | 0.00 | 30 | 1006.4 |
| 20260503224359 | 60 | 8 | 2.6 | 7.8 | 0.00 | 0.00 | 0.00 | 30 | 1006.4 |
| 20260503224159 | 60 | 165 | 2.6 | 7.8 | 0.00 | 0.00 | 0.00 | 30 | 1006.4 |
| 20260503223959 | 60 | 35 | 1.7 | 7.8 | 0.00 | 0.00 | 0.00 | 30 | 1006.3 |
| 20260503223759 | 60 | 262 | 1.7 | 7.8 | 0.00 | 0.00 | 0.00 | 29 | 1006.3 |
| 20260503223600 | 60 | 232 | 1.7 | 4.3 | 0.00 | 0.00 | 0.00 | 30 | 1006.3 |
| 20260503223359 | 60 | 147 | 1.7 | 6.1 | 0.00 | 0.00 | 0.00 | 30 | 1006.4 |
| 20260503223159 | 60 | 215 | 1.7 | 6.1 | 0.00 | 0.00 | 0.00 | 30 | 1006.3 |
| 20260503222959 | 60 | 27 | 1.7 | 6.1 | 0.00 | 0.00 | 0.00 | 29 | 1006.3 |
| 20260503222759 | 60 | 321 | 1.7 | 7.0 | 0.00 | 0.00 | 0.00 | 30 | 1006.3 |
| 20260503222559 | 60 | 32 | 1.7 | 7.0 | 0.00 | 0.00 | 0.00 | 29 | 1006.3 |
| 20260503222400 | 60 | 232 | 1.7 | 7.8 | 0.00 | 0.00 | 0.00 | 30 | 1006.3 |
| 20260503222200 | 60 | 323 | 1.7 | 7.8 | 0.00 | 0.00 | 0.00 | 30 | 1006.3 |
| 20260503222000 | 60 | 248 | 1.7 | 7.8 | 0.00 | 0.00 | 0.00 | 30 | 1006.2 |
| 20260503221800 | 60 | 112 | 1.7 | 7.8 | 0.00 | 0.00 | 0.00 | 30 | 1006.2 |
| 20260503221559 | 60 | 168 | 1.7 | 7.8 | 0.00 | 0.00 | 0.00 | 29 | 1006.3 |
| 20260503221400 | 60 | 89 | 1.7 | 7.8 | 0.00 | 0.00 | 0.00 | 30 | 1006.2 |
| 20260503221200 | 60 | 340 | 1.7 | 7.8 | 0.00 | 0.00 | 0.00 | 30 | 1006.2 |
| 20260503220959 | 60 | 357 | 2.6 | 7.8 | 0.00 | 0.00 | 0.00 | 30 | 1006.3 |
| 20260503220759 | 60 | 270 | 2.6 | 7.8 | 0.00 | 0.00 | 0.00 | 29 | 1006.3 |
| 20260503220557 | 60 | 307 | 2.6 | 7.8 | 0.00 | 0.00 | 0.00 | 29 | 1006.3 |
| 20260503220352 | 61 | 273 | 2.6 | 7.0 | 0.00 | 0.00 | 0.00 | 29 | 1006.2 |
| 20260503220153 | 61 | 320 | 2.6 | 7.0 | 0.00 | 0.00 | 0.00 | 29 | 1006.2 |
| 20260503215952 | 61 | 306 | 2.6 | 6.1 | 0.00 | 0.00 | 0.00 | 30 | 1006.2 |
| 20260503215753 | 61 | 24 | 2.6 | 6.1 | 0.00 | 0.00 | 0.00 | 30 | 1006.2 |
| 20260503215553 | 61 | 353 | 2.6 | 7.8 | 0.00 | 0.00 | 0.00 | 29 | 1006.2 |
| 20260503215349 | 60 | 231 | 2.6 | 7.8 | 0.00 | 0.00 | 0.00 | 30 | 1006.3 |
| 20260503215150 | 60 | 333 | 2.6 | 8.7 | 0.00 | 0.00 | 0.00 | 30 | 1006.3 |
| 20260503214950 | 60 | 21 | 3.5 | 8.7 | 0.00 | 0.00 | 0.00 | 30 | 1006.2 |
| 20260503214750 | 60 | 323 | 3.5 | 8.7 | 0.00 | 0.00 | 0.00 | 30 | 1006.3 |
| 20260503214550 | 60 | 4 | 4.3 | 8.7 | 0.00 | 0.00 | 0.00 | 30 | 1006.2 |
| 20260503214347 | 60 | 226 | 3.5 | 8.7 | 0.00 | 0.00 | 0.00 | 30 | 1006.1 |
| 20260503214147 | 60 | 245 | 3.5 | 8.7 | 0.00 | 0.00 | 0.00 | 30 | 1006.1 |
| 20260503213947 | 60 | 295 | 3.5 | 8.7 | 0.00 | 0.00 | 0.00 | 30 | 1006.1 |
| 20260503213744 | 60 | 253 | 2.6 | 7.8 | 0.00 | 0.00 | 0.00 | 30 | 1006.1 |
| 20260503213544 | 60 | 321 | 2.6 | 7.8 | 0.00 | 0.00 | 0.00 | 30 | 1006.1 |
| 20260503213344 | 60 | 235 | 2.6 | 7.8 | 0.00 | 0.00 | 0.00 | 30 | 1006.0 |
| 20260503213144 | 60 | 13 | 2.6 | 7.8 | 0.00 | 0.00 | 0.00 | 30 | 1006.0 |
| 20260503212944 | 60 | 226 | 2.6 | 8.7 | 0.00 | 0.00 | 0.00 | 31 | 1006.0 |
| 20260503212744 | 60 | 310 | 2.6 | 8.7 | 0.00 | 0.00 | 0.00 | 31 | 1006.0 |
| 20260503212544 | 60 | 45 | 2.6 | 8.7 | 0.00 | 0.00 | 0.00 | 30 | 1006.0 |
| 20260503212344 | 60 | 327 | 2.6 | 8.7 | 0.00 | 0.00 | 0.00 | 31 | 1006.0 |
| 20260503212145 | 60 | 331 | 2.6 | 8.7 | 0.00 | 0.00 | 0.00 | 30 | 1006.0 |
| 20260503211944 | 60 | 341 | 2.6 | 7.8 | 0.00 | 0.00 | 0.00 | 31 | 1006.0 |
| 20260503211744 | 60 | 250 | 2.6 | 7.8 | 0.00 | 0.00 | 0.00 | 30 | 1005.9 |
| 20260503211545 | 60 | 8 | 1.7 | 7.8 | 0.00 | 0.00 | 0.00 | 31 | 1006.0 |
| 20260503211240 | 60 | 246 | 2.6 | 6.1 | 0.00 | 0.00 | 0.00 | 31 | 1006.0 |
| 20260503210945 | 60 | 184 | 2.6 | 6.1 | 0.00 | 0.00 | 0.00 | 31 | 1006.1 |
| 20260503210744 | 60 | 29 | 2.6 | 6.1 | 0.00 | 0.00 | 0.00 | 31 | 1006.0 |
| 20260503210544 | 60 | 333 | 2.6 | 6.1 | 0.00 | 0.00 | 0.00 | 31 | 1006.0 |
| 20260503210344 | 60 | 256 | 2.6 | 7.8 | 0.00 | 0.00 | 0.00 | 30 | 1005.9 |
| 20260503210144 | 60 | 28 | 2.6 | 7.8 | 0.00 | 0.00 | 0.00 | 31 | 1006.1 |
| 20260503205942 | 60 | 329 | 2.6 | 7.8 | 0.00 | 0.00 | 0.00 | 30 | 1006.0 |
| 20260503205742 | 60 | 64 | 2.6 | 8.7 | 0.00 | 0.00 | 0.00 | 31 | 1006.0 |
| 20260503205538 | 60 | 341 | 2.6 | 8.7 | 0.00 | 0.00 | 0.00 | 31 | 1006.0 |
| 20260503205339 | 59 | 337 | 2.6 | 8.7 | 0.00 | 0.00 | 0.00 | 32 | 1006.0 |
| 20260503205234 | 60 | 59 | 2.6 | 8.7 | 0.00 | 0.00 | 0.00 | 30 | 1006.0 |
| 20260503204936 | 60 | 31 | 2.6 | 8.7 | 0.00 | 0.00 | 0.00 | 30 | 1006.0 |
| 20260503204736 | 60 | 250 | 2.6 | 7.8 | 0.00 | 0.00 | 0.00 | 31 | 1005.9 |
| 20260503204535 | 60 | 346 | 2.6 | 7.8 | 0.00 | 0.00 | 0.00 | 31 | 1006.0 |
| 20260503204336 | 60 | 357 | 2.6 | 7.8 | 0.00 | 0.00 | 0.00 | 31 | 1005.9 |
| 20260503204136 | 60 | 304 | 2.6 | 7.8 | 0.00 | 0.00 | 0.00 | 31 | 1005.9 |
| 20260503203936 | 60 | 283 | 2.6 | 7.8 | 0.00 | 0.00 | 0.00 | 31 | 1006.0 |
| 20260503203736 | 60 | 237 | 2.6 | 7.0 | 0.00 | 0.00 | 0.00 | 32 | 1005.9 |
| 20260503203537 | 59 | 77 | 2.6 | 6.1 | 0.00 | 0.00 | 0.00 | 31 | 1005.9 |
| 20260503203336 | 59 | 71 | 2.6 | 6.1 | 0.00 | 0.00 | 0.00 | 32 | 1006.0 |
| 20260503203234 | 59 | 327 | 2.6 | 6.1 | 0.00 | 0.00 | 0.00 | 33 | 1006.0 |
| 20260503202936 | 59 | 9 | 2.6 | 7.8 | 0.00 | 0.00 | 0.00 | 33 | 1006.0 |
| 20260503202736 | 59 | 259 | 2.6 | 7.8 | 0.00 | 0.00 | 0.00 | 32 | 1006.0 |
| 20260503202537 | 59 | 111 | 2.6 | 7.8 | 0.00 | 0.00 | 0.00 | 32 | 1005.9 |
| 20260503202335 | 59 | 354 | 2.6 | 7.8 | 0.00 | 0.00 | 0.00 | 33 | 1006.2 |
| 20260503202234 | 59 | 161 | 3.5 | 7.8 | 0.00 | 0.00 | 0.00 | 32 | 1006.1 |
| 20260503201937 | 59 | 15 | 3.5 | 7.8 | 0.00 | 0.00 | 0.00 | 33 | 1006.0 |
| 20260503201736 | 59 | 319 | 3.5 | 7.8 | 0.00 | 0.00 | 0.00 | 32 | 1006.0 |
| 20260503201536 | 59 | 45 | 2.6 | 8.7 | 0.00 | 0.00 | 0.00 | 32 | 1006.1 |
| 20260503201336 | 59 | 277 | 3.5 | 9.6 | 0.00 | 0.00 | 0.00 | 33 | 1006.1 |
| 20260503201136 | 59 | 343 | 2.6 | 9.6 | 0.00 | 0.00 | 0.00 | 33 | 1006.1 |
| 20260503200936 | 59 | 238 | 2.6 | 9.6 | 0.00 | 0.00 | 0.00 | 34 | 1006.0 |
| 20260503200736 | 59 | 324 | 3.5 | 9.6 | 0.00 | 0.00 | 0.00 | 33 | 1006.1 |
| 20260503200537 | 59 | 97 | 2.6 | 9.6 | 0.00 | 0.00 | 0.00 | 33 | 1006.2 |
| 20260503200337 | 59 | 217 | 2.6 | 10.4 | 0.00 | 0.00 | 0.00 | 34 | 1006.1 |
| 20260503200136 | 59 | 17 | 2.6 | 10.4 | 0.00 | 0.00 | 0.00 | 33 | 1006.1 |
| 20260503195937 | 59 | 285 | 3.5 | 11.3 | 0.00 | 0.00 | 0.00 | 34 | 1006.0 |
| 20260503195734 | 59 | 241 | 3.5 | 11.3 | 0.00 | 0.00 | 0.00 | 34 | 1006.0 |
| 20260503195534 | 58 | 47 | 3.5 | 11.3 | 0.00 | 0.00 | 0.00 | 34 | 1006.0 |
| 20260503195333 | 58 | 23 | 2.6 | 11.3 | 0.00 | 0.00 | 0.00 | 34 | 1006.2 |
| 20260503195134 | 58 | 307 | 2.6 | 11.3 | 0.00 | 0.00 | 0.00 | 34 | 1006.3 |